User: anonymous   Login
Location: Civry
(47.2902°N, 4.6156°E)
Time: 15:30:11
(UTC+00:00)
Language:

Mayak - Orbit

View from above orbital plane
View from above orbital plane
View from above satellite
View from above satellite

Ground track
Ground track

The orbit data is extracted from the following two-line orbital elements,

1 42830U 17042F   21163.44786031  .00000946  00000-0  96254-4 0  9996
2 42830  97.4818  35.8575 0014616 149.9781 210.2280 14.92875452213059
Epoch (UTC): 12 June 2021 10:44:55
Eccentricity: 0.0014616
inclination: 97.4818°
perigee height: 579 km
apogee height: 599 km
right ascension of ascending node: 35.8575°
argument of perigee: 149.9781°
revolutions per day: 14.92875452
mean anomaly at epoch: 210.2280°
orbit number at epoch: 21305

The dashed part of the orbit path shows where the satellite is in the earth's shadow,  

DLR